Back to catalog

DELTA 1 DEB

AliveSSO
NORAD 10829·DEBRIS·🇺🇸 United States

Launched Jul 29, 1976 from Vandenberg Space Force Base

Loading…

Next Passes (next 24 hours)

TLE

FreshSource: Space-Track

Epoch: Sep 14, 2026, 09:22 UTC

1 10829U 76077BZ  26257.39072157  .00000056  00000-0  77091-3 0  9991
2 10829 101.7849 211.6472 0041389 304.7733 212.9393 12.36771689260161

Track DELTA 1 DEB in real time with AllMySat

Download on the App Store